EHI
0 0 0 0 0 0 0 0 0 0 0 0 0 1 2 3 2 2 4 9 18 33 45 48 46 45 41 40 45 55 61 63 66 70 70 64 56 47 35 21 12 9 5 3 2 1 2 2 2
0 0 0 0 0 0 0 0 0 0 0 0 1 2 2 3 2 2 5 12 22 34 43 47 48 47 44 44 48 56 62 63 63 66 67 63 57 51 40 26 16 11 7 4 1 0 1 1 1
0 0 0 0 0 0 0 0 0 0 0 1 2 2 2 2 3 4 7 16 25 32 39 46 50 49 48 48 50 57 61 61 60 61 61 60 57 52 43 30 20 14 10 6 2 1 1 0 0
0 0 0 0 0 0 0 0 0 0 1 1 2 1 2 3 4 7 13 20 26 29 34 44 50 49 48 47 50 55 59 59 59 59 58 56 53 49 41 30 20 14 11 7 5 4 2 1 0
0 0 0 0 0 0 0 0 0 1 2 2 2 2 5 7 10 14 19 23 27 28 33 42 48 46 42 41 46 51 55 56 58 58 56 53 49 45 38 28 19 13 10 7 6 6 5 2 1
0 0 0 0 0 0 0 0 0 1 3 3 3 4 8 15 21 24 24 24 27 30 36 43 46 42 38 38 42 46 49 51 54 54 52 48 44 39 33 25 18 13 10 8 6 6 6 5 4
0 0 0 0 0 0 1 1 2 3 4 2 2 4 9 22 36 39 32 27 30 33 37 41 42 40 38 38 40 42 44 46 47 47 44 41 37 31 26 22 17 13 11 9 8 7 7 6 6
0 0 0 0 0 1 3 4 5 5 4 2 2 3 11 29 47 50 44 38 37 37 37 38 38 36 36 37 39 40 41 43 42 39 36 32 28 23 20 17 15 13 11 10 9 8 7 5 4
0 0 0 0 0 2 5 6 6 5 4 3 2 5 15 33 49 55 53 48 46 44 40 37 35 33 31 34 39 40 39 40 36 32 30 26 20 17 16 17 17 14 11 8 8 8 7 4 2
0 0 0 0 0 2 4 5 4 3 2 2 3 8 19 34 46 52 54 52 50 48 44 39 36 32 31 34 38 39 39 38 33 29 28 24 19 16 17 21 21 15 9 7 6 8 7 3 1
0 0 0 0 0 1 3 3 2 2 2 3 5 11 20 30 37 42 47 48 47 48 48 44 39 35 33 35 39 41 42 41 36 32 31 27 25 24 23 24 23 16 10 8 9 8 6 3 1
0 0 0 0 0 1 2 2 3 4 4 5 8 12 18 23 26 32 37 41 43 47 49 46 43 41 38 39 41 42 42 42 41 38 35 32 31 30 28 26 22 18 16 16 16 12 7 5 4
0 0 0 0 1 3 3 3 4 5 6 7 8 11 14 15 19 25 30 35 41 45 46 44 45 45 44 43 41 38 38 38 39 40 39 35 34 33 29 24 21 19 19 21 20 15 10 7 7
0 0 0 0 1 3 4 4 5 6 7 6 8 10 12 14 17 21 26 32 39 41 40 41 44 45 45 42 38 33 31 31 31 35 37 35 35 36 32 24 20 18 18 19 19 17 12 10 10
0 0 0 0 1 2 3 3 4 6 6 7 8 11 13 16 18 20 24 30 35 35 35 36 37 39 40 39 35 31 27 25 25 28 30 30 31 35 33 25 19 18 18 20 20 19 15 12 11
0 0 0 0 0 1 1 2 3 4 6 8 11 12 14 17 19 19 22 27 31 33 34 32 30 31 36 37 35 32 28 24 23 23 24 25 27 30 29 22 19 21 23 23 21 19 16 13 12
0 0 0 0 0 1 2 2 3 3 6 11 13 13 14 16 18 17 19 23 28 32 34 30 26 27 31 34 34 32 29 25 22 22 23 24 25 26 23 18 19 24 27 25 21 19 17 14 13
0 0 0 0 0 1 2 3 3 5 8 12 14 14 12 13 14 14 16 21 27 31 32 30 27 27 30 31 30 29 27 24 22 23 23 23 23 22 19 17 19 23 25 24 21 17 15 15 16
0 0 0 0 0 1 2 4 4 6 9 11 13 12 10 9 10 12 15 19 26 31 31 31 30 30 32 32 30 28 26 23 23 24 22 19 18 18 17 16 18 20 21 21 19 14 11 12 14
0 0 0 0 0 0 1 3 5 6 7 9 10 10 9 9 9 11 12 15 21 26 27 28 29 30 31 31 29 29 27 25 24 23 20 16 14 15 15 17 20 21 20 18 16 13 9 8 10
0 0 0 0 0 0 0 2 4 5 6 7 8 9 10 10 10 9 10 11 15 19 20 21 24 26 27 26 24 24 25 24 22 20 17 14 13 14 16 19 22 23 20 18 17 15 11 9 10
0 0 0 0 0 0 0 1 2 5 6 7 9 10 10 11 11 9 9 10 11 14 16 17 21 24 24 22 19 18 19 20 19 18 16 14 12 12 14 17 20 21 20 19 18 17 14 13 12
0 0 0 0 0 0 0 0 1 4 6 8 11 12 12 12 11 9 8 8 9 10 12 15 19 21 21 19 17 16 17 18 18 17 16 15 13 10 10 13 16 18 19 19 19 17 15 12 10
0 0 0 0 0 0 0 0 2 4 6 8 10 12 13 12 11 9 7 6 6 6 9 12 14 17 18 17 16 16 17 18 17 16 15 14 13 10 9 10 13 15 17 17 17 15 11 9 7
0 0 0 0 0 0 0 1 4 6 6 6 7 10 11 10 10 9 7 5 5 5 7 9 11 13 15 16 18 18 18 18 16 14 14 13 13 11 9 9 11 13 15 15 14 12 9 7 7
0 0 0 0 0 0 0 1 4 4 4 3 4 6 7 7 9 9 8 6 6 7 8 9 10 12 14 16 18 18 18 18 16 14 12 12 11 9 8 8 8 11 12 11 9 8 8 8 9
0 0 0 0 0 0 0 0 1 2 2 2 2 4 5 6 8 10 9 8 8 8 7 8 9 11 13 15 15 15 15 15 15 13 11 9 8 6 5 6 6 7 8 7 6 7 8 9 10
0 0 0 0 0 0 0 0 0 0 0 1 2 4 6 7 8 10 10 9 9 7 4 5 8 10 11 13 12 12 13 11 10 10 8 7 6 4 3 4 6 6 6 5 5 6 7 8 8
0 0 0 0 0 0 0 0 0 0 0 0 2 5 6 6 7 9 9 9 8 5 2 2 5 7 9 11 10 10 10 8 8 8 7 6 6 4 3 4 6 6 6 5 5 5 5 5 5
0 0 0 0 0 0 0 0 0 0 0 0 2 5 7 6 6 8 9 9 8 5 2 2 4 5 8 9 9 8 8 7 9 9 7 6 6 4 3 4 6 6 5 4 4 3 3 2 3
Wind_Speed
8 7 6 6 8 5 1 4 2 2 2 2 0 1 2 4 5 5 5 10 13 15 17 19 15 15 14 13 12 12 13 14 14 14 14 13 13 13 12 11 10 9 8 7 7 7 6 6 5
6 6 7 7 7 3 3 3 3 4 4 1 2 1 0 3 5 5 7 11 14 16 16 17 17 15 14 14 13 13 13 14 14 13 13 13 13 12 11 11 10 9 8 7 7 6 6 6 5
6 7 7 6 3 2 3 4 4 4 2 2 2 0 2 3 3 4 7 13 14 15 15 16 17 15 14 14 14 13 13 13 13 13 13 13 12 11 10 10 10 9 8 7 7 6 6 6 5
6 7 7 6 2 3 3 3 3 1 3 2 2 2 3 4 2 5 11 14 14 14 15 17 16 15 14 14 14 14 13 13 13 13 12 12 11 10 10 9 9 8 8 7 7 6 6 6 5
7 7 7 5 2 3 2 2 2 2 0 1 2 1 3 4 3 8 12 13 13 13 13 17 15 14 14 14 14 13 13 12 12 12 12 11 10 10 9 9 9 8 8 7 7 7 6 6 6
6 6 6 4 3 3 2 1 2 1 0 1 1 1 4 5 6 9 11 11 12 11 12 15 16 14 14 14 13 12 12 12 11 11 11 10 10 9 9 9 8 8 8 8 7 7 7 6 6
6 5 4 2 3 3 3 1 2 2 1 0 1 1 3 7 7 8 10 10 10 10 11 12 14 14 14 13 12 12 11 11 10 10 10 10 10 9 9 8 8 8 7 7 7 7 7 6 6
6 5 4 3 2 3 3 1 2 3 2 2 2 3 1 7 9 9 9 9 9 9 9 10 11 12 13 13 13 12 11 10 10 10 10 10 10 10 9 9 8 8 8 7 7 7 7 7 7
6 6 3 1 1 2 2 2 2 2 2 2 2 3 4 9 11 10 10 10 9 9 8 9 10 10 10 11 12 13 12 11 11 11 11 10 9 9 9 9 8 8 8 8 8 8 8 9 9
6 4 2 3 4 2 1 3 3 3 3 3 2 0 5 8 11 12 11 11 11 10 9 9 9 10 9 8 8 8 8 9 9 8 9 8 6 6 6 7 8 9 9 10 10 9 10 11 8
4 3 3 2 3 3 3 2 3 4 3 3 3 1 4 8 9 10 10 10 10 10 9 9 8 8 8 6 6 5 4 5 7 7 7 6 6 5 5 4 6 8 10 9 9 10 8 8 6
3 2 4 4 3 3 3 3 3 4 6 6 3 2 4 7 8 9 9 9 9 9 10 8 8 8 7 6 5 5 4 4 5 7 8 6 4 5 4 4 5 5 4 5 5 5 6 7 7
3 1 2 2 3 3 3 3 4 4 5 4 1 2 5 6 7 6 7 7 8 9 9 8 8 7 6 6 5 5 5 4 5 5 6 7 5 5 5 4 4 5 4 5 5 5 5 6 7
2 3 3 2 1 1 2 2 3 4 5 3 1 1 4 5 5 5 6 6 7 7 7 7 7 7 6 6 5 4 4 4 4 4 5 7 5 5 5 5 5 5 5 5 5 6 5 6 6
3 4 3 1 1 1 4 4 2 4 3 2 1 1 2 2 3 4 4 5 6 6 6 6 7 7 7 6 6 4 4 4 4 4 5 6 6 5 5 5 5 5 5 5 5 6 6 6 6
6 6 3 1 3 2 7 5 4 3 3 3 2 0 1 1 1 1 2 3 4 5 5 5 5 6 6 5 4 3 3 4 4 3 4 6 6 6 5 5 5 5 5 5 5 5 5 5 6
4 4 4 2 2 4 7 6 4 4 4 3 2 1 1 0 0 0 1 2 3 4 4 5 5 5 5 5 4 4 3 3 3 3 3 4 6 6 6 5 4 5 5 5 5 4 5 5 5
5 7 6 6 4 6 7 6 5 3 4 3 3 2 1 1 1 1 1 1 2 3 4 5 5 5 5 4 4 4 4 3 3 3 3 4 4 5 5 5 5 6 4 4 4 5 5 5 5
6 8 8 6 5 7 7 6 5 4 4 3 3 2 1 1 1 1 1 0 1 2 3 3 4 4 4 4 4 4 4 3 3 2 2 3 4 4 5 4 4 5 4 4 5 5 6 5 4
7 9 8 6 4 7 7 6 4 3 3 3 3 2 2 1 1 1 1 0 1 1 1 2 3 4 4 3 3 3 3 3 3 2 2 3 4 5 5 5 4 4 4 4 4 4 4 4 3
8 9 10 10 8 8 9 7 3 0 1 1 2 2 3 2 2 1 1 1 1 1 0 1 1 3 3 3 3 2 3 3 3 3 3 4 4 4 4 5 4 4 4 3 4 4 4 4 3
8 7 10 10 11 7 7 8 1 0 1 3 4 4 4 4 2 1 1 1 1 1 1 1 1 2 3 4 4 4 3 3 4 3 3 3 4 4 5 5 5 4 4 3 4 2 3 3 3
9 9 10 11 11 10 7 9 1 1 2 4 5 5 5 5 4 3 2 2 1 1 0 1 1 1 2 3 4 4 4 4 3 3 3 3 2 3 4 4 5 5 4 3 3 2 3 3 3
7 9 10 10 9 8 4 8 3 4 6 6 6 6 6 5 5 4 3 2 1 1 1 0 1 1 1 2 3 4 4 4 3 3 3 3 2 2 2 2 3 3 2 2 3 2 3 3 3
7 10 7 6 6 5 3 6 3 7 7 6 6 6 6 6 5 4 3 2 2 1 1 1 0 1 0 1 2 3 4 4 4 3 2 3 2 1 1 1 1 2 1 2 2 3 2 3 4
7 8 8 9 9 8 5 5 4 6 7 6 6 6 6 7 6 5 4 3 2 2 1 1 0 0 1 1 1 3 3 3 2 2 3 2 2 1 1 1 2 1 1 2 2 2 2 2 3
7 6 8 11 12 11 5 4 1 4 5 7 7 7 7 7 7 5 4 3 3 2 2 2 1 0 1 0 0 1 2 2 1 2 3 2 1 1 2 3 2 2 1 1 2 2 2 3 4
6 7 6 8 9 10 8 6 4 6 6 7 8 9 8 7 7 5 4 3 3 2 2 2 1 0 1 2 1 1 0 1 1 2 1 2 1 1 3 3 2 2 2 2 2 2 2 3 4
6 6 7 9 8 10 10 5 7 7 7 7 8 8 8 7 6 5 4 4 3 2 1 2 1 1 1 2 2 1 1 1 1 1 1 1 1 2 2 3 2 2 2 2 2 3 3 3 3
6 7 8 9 9 10 10 4 5 7 7 7 8 8 8 7 6 5 4 4 3 3 3 2 2 1 1 1 1 1 1 2 1 1 1 1 2 2 3 2 2 2 2 2 2 2 2 3 3
Wind_Direction
207 209 220 233 237 227 112 79 34 48 61 48 82 284 333 4 355 39 90 148 149 149 147 156 161 163 161 159 154 152 153 154 154 157 160 161 162 163 163 164 163 163 162 159 156 155 152 152 151
208 206 225 237 255 214 110 72 51 32 37 51 153 193 327 56 38 79 128 146 153 151 151 159 158 164 163 161 157 154 154 154 154 156 159 161 163 164 166 168 168 169 168 167 165 164 161 161 162
208 228 248 244 258 332 69 64 42 42 92 211 169 125 9 56 83 120 132 152 157 154 155 149 159 165 165 164 161 159 157 156 157 159 161 163 164 165 167 170 172 173 174 173 173 173 170 170 173
218 219 233 248 216 58 20 35 13 16 138 175 204 128 97 58 69 120 141 158 160 158 156 149 164 167 168 167 166 164 162 161 162 163 164 165 167 169 172 174 175 176 179 180 181 180 179 181 184
236 243 227 213 163 81 48 8 319 292 112 142 217 137 106 93 99 129 148 159 163 160 157 150 165 169 171 171 170 168 166 166 166 168 168 168 170 173 177 181 183 185 186 187 188 188 189 194 198
229 238 231 198 127 105 88 27 274 280 214 138 228 222 93 107 133 142 152 163 164 161 160 148 164 172 174 176 174 173 171 171 171 172 173 174 176 179 183 187 190 192 194 195 194 194 200 206 211
259 245 239 191 143 132 74 25 291 285 246 135 279 238 127 132 136 148 155 163 164 165 163 158 169 173 177 178 178 177 176 175 176 177 179 180 182 185 189 193 197 199 202 205 204 203 207 211 218
280 254 208 191 190 113 88 0 353 309 327 57 245 253 124 130 144 152 157 163 165 168 171 166 175 176 180 180 181 183 182 182 182 183 185 186 189 194 198 203 199 208 210 214 215 214 218 222 225
258 243 203 168 249 75 67 323 9 324 265 236 266 315 61 133 153 160 162 168 170 171 177 177 179 181 189 187 175 184 186 188 190 190 191 199 204 200 198 209 189 211 218 221 223 223 225 229 221
249 242 58 20 340 339 323 310 324 241 231 234 236 106 122 156 169 175 176 177 177 177 182 182 187 185 193 191 179 191 194 188 202 197 194 206 211 215 219 170 191 215 223 225 227 229 228 235 228
259 317 15 354 342 312 291 297 298 283 287 315 291 240 168 179 186 189 189 185 182 178 182 187 187 188 194 193 190 192 195 189 201 203 204 212 215 217 224 206 197 212 219 224 213 222 231 232 241
258 328 322 327 332 284 292 297 295 324 332 344 332 207 185 189 196 199 197 188 183 182 183 187 187 188 198 202 196 197 200 194 201 200 209 211 217 223 224 228 229 224 220 228 231 234 236 245 248
242 313 331 311 297 299 281 272 291 331 338 347 349 191 196 199 204 207 203 196 189 189 187 189 193 188 196 205 212 205 208 207 206 209 208 219 219 222 223 229 237 243 241 228 238 242 241 246 248
349 317 288 283 280 240 275 278 275 331 350 357 7 215 208 209 213 209 206 206 201 196 194 190 193 190 196 203 212 216 213 208 215 211 212 221 226 224 226 228 229 238 246 248 245 245 246 248 251
251 249 222 163 296 318 276 254 303 344 343 331 332 260 213 221 220 220 217 213 209 203 195 193 192 195 202 211 215 217 217 215 218 215 218 221 227 223 228 234 232 234 239 240 245 248 248 244 245
226 241 250 57 323 313 277 296 20 354 313 312 318 319 208 196 220 207 211 216 209 201 192 194 199 194 201 214 219 226 226 222 222 219 222 223 229 230 233 237 236 237 241 240 239 245 250 253 254
228 288 318 333 337 303 283 303 345 328 302 292 282 285 257 200 222 148 188 200 204 192 189 188 198 198 200 205 214 222 220 223 225 224 229 227 225 230 235 245 249 242 240 242 248 240 252 256 258
327 311 310 315 338 300 292 301 316 316 294 284 290 285 272 322 2 33 49 114 182 187 188 193 195 199 201 201 206 219 220 221 224 228 236 240 229 231 239 239 245 246 243 244 246 255 250 259 261
308 301 302 315 327 300 298 300 312 316 293 289 289 293 323 339 11 34 36 74 147 172 178 192 201 196 202 206 214 213 223 225 228 226 237 240 241 238 240 246 237 243 239 244 247 251 246 249 258
294 295 305 314 327 297 294 291 293 304 306 315 319 315 321 338 31 25 4 46 83 101 167 188 204 202 208 214 223 221 231 235 229 232 234 248 245 242 237 246 247 241 244 235 239 243 255 257 247
299 310 317 312 301 265 276 259 253 122 35 17 6 3 0 356 344 354 348 7 355 35 123 182 212 211 209 211 218 216 221 230 229 225 228 238 240 239 241 238 244 243 241 233 234 232 241 262 258
305 331 309 297 288 286 285 289 265 92 53 40 28 13 3 355 340 351 7 347 335 356 61 189 201 209 205 208 211 220 235 245 254 253 247 247 241 239 230 232 229 229 233 231 229 221 244 253 261
320 316 294 286 280 280 269 282 333 135 4 24 22 13 5 2 354 357 355 349 349 355 5 172 173 186 198 205 210 226 236 244 248 253 249 249 236 240 238 232 227 222 224 223 233 231 243 250 261
309 293 270 252 256 267 308 297 318 36 18 16 19 12 6 4 4 5 4 9 8 329 295 215 159 152 205 202 208 220 236 243 250 257 262 252 233 231 236 230 215 216 218 218 231 235 234 249 265
312 307 287 270 267 296 348 289 3 41 29 24 14 11 9 3 358 4 357 345 343 319 297 309 134 122 239 218 215 223 233 232 236 254 260 265 253 229 206 221 219 213 212 237 243 233 241 245 257
318 309 310 305 306 309 288 279 45 53 46 34 18 12 9 1 355 357 355 339 321 321 320 324 355 208 235 229 222 226 237 243 250 263 272 260 260 248 205 212 220 236 227 236 253 258 248 252 258
312 317 324 291 285 285 285 285 256 55 29 17 11 8 2 358 353 354 356 346 336 344 359 353 348 358 337 313 172 195 240 260 269 254 250 247 241 228 204 213 212 224 241 252 262 267 263 262 256
319 320 296 293 302 294 288 291 336 359 359 356 358 358 354 353 354 356 354 348 344 360 15 3 18 51 43 32 45 85 87 273 259 269 293 285 267 236 219 213 211 215 224 240 269 274 269 268 268
310 306 306 298 296 296 296 321 25 1 350 346 350 351 352 350 350 358 0 353 349 358 359 343 2 36 52 55 61 20 352 345 317 296 303 289 281 256 231 226 219 222 225 227 235 257 261 265 276
305 318 314 303 301 291 291 310 34 355 349 347 346 348 351 352 354 359 358 349 347 353 350 336 338 8 78 76 71 52 353 345 341 336 325 303 287 266 233 223 218 222 226 227 232 248 259 271 280